IK3SVW-3 Weather Reports


Display with metric or nautical units.
time (UTC)temp
F
wind
direction
speed
MPH
gust
MPH
rain 1hr
in
rain 24hr
in
rain mn
in
humidity
%
barometer
mb
20260502213757 64 0 0.0 0.0 0.00 0.00 0.00 48 1019.0
20260502212646 65 0 0.0 0.0 0.00 0.00 0.00 47 1019.0
20260502211547 65 0 0.0 0.0 0.00 0.00 0.00 47 1019.0
20260502210446 65 0 0.0 0.0 0.00 0.00 0.00 46 1019.0
20260502203744 66 0 0.0 0.0 0.00 0.00 0.00 44 1019.0
20260502202650 67 0 0.0 0.0 0.00 0.00 0.00 43 1019.0
20260502201545 67 0 0.0 0.0 0.00 0.00 0.00 42 1019.0
20260502200446 67 0 0.0 0.0 0.00 0.00 0.00 42 1019.0
20260502195948 68 0 0.0 0.0 0.00 0.00 0.00 41 1019.0
20260502194844 68 0 0.0 0.0 0.00 0.00 0.00 40 1019.0
20260502191544 69 0 0.0 0.0 0.00 0.00 0.00 37 1019.0
20260502190446 69 0 0.0 0.0 0.00 0.00 0.00 37 1019.0
20260502185946 69 0 0.0 0.0 0.00 0.00 0.00 36 1019.0
20260502184844 70 0 0.0 0.0 0.00 0.00 0.00 35 1019.0
20260502182644 71 0 0.0 0.0 0.00 0.00 0.00 34 1019.0
20260502180445 72 0 0.0 0.0 0.00 0.00 0.00 33 1019.0
20260502170446 76 0 0.0 0.0 0.00 0.00 0.00 25 1019.0
20260502162652 78 0 0.0 0.0 0.00 0.00 0.00 24 1019.0
20260502161545 78 0 0.0 0.0 0.00 0.00 0.00 24 1019.0
20260502160446 78 0 0.0 0.0 0.00 0.00 0.00 24 1019.0
20260502151546 76 0 0.0 0.0 0.00 0.00 0.00 26 1020.0
20260502123551 71 0 0.0 0.0 0.00 0.00 0.00 30 1021.0
20260502122645 70 0 0.0 0.0 0.00 0.00 0.00 29 1022.0
20260502121545 70 0 0.0 0.0 0.00 0.00 0.00 30 1022.0
20260502120448 70 0 0.0 0.0 0.00 0.00 0.00 31 1022.0
20260502114651 70 0 0.0 0.0 0.00 0.00 0.00 31 1022.0
20260502113544 69 0 0.0 0.0 0.00 0.00 0.00 32 1022.0
20260502113130 69 0 0.0 0.0 0.00 0.00 0.00 32 1023.0
20260502112645 69 0 0.0 0.0 0.00 0.00 0.00 32 1023.0
20260502110447 69 0 0.0 0.0 0.00 0.00 0.00 32 1023.0
20260502102644 68 0 0.0 0.0 0.00 0.00 0.00 33 1023.0
20260502101545 67 0 0.0 0.0 0.00 0.00 0.00 33 1023.0
20260502070444 61 0 0.0 0.0 0.00 0.00 0.00 39 1025.0
20260502064847 60 0 0.0 0.0 0.00 0.00 0.00 40 1025.0
20260502062651 59 0 0.0 0.0 0.00 0.00 0.00 43 1025.0
20260502061544 59 0 0.0 0.0 0.00 0.00 0.00 45 1025.0
20260502055945 58 0 0.0 0.0 0.00 0.00 0.00 45 1025.0
20260502044845 54 0 0.0 0.0 0.00 0.00 0.00 48 1025.0
20260502042644 54 0 0.0 0.0 0.00 0.00 0.00 48 1025.0
20260502040444 53 0 0.0 0.0 0.00 0.00 0.00 48 1025.0
20260502034846 53 0 0.0 0.0 0.00 0.00 0.00 48 1025.0
20260502032644 53 0 0.0 0.0 0.00 0.00 0.00 46 1025.0
20260502024844 54 0 0.0 0.0 0.00 0.00 0.00 45 1025.0
20260502023744 54 0 0.0 0.0 0.00 0.00 0.00 44 1025.0
20260502022645 54 0 0.0 0.0 0.00 0.00 0.00 44 1025.0
20260502021544 55 0 0.0 0.0 0.00 0.00 0.00 43 1025.0
20260502020444 55 0 0.0 0.0 0.00 0.00 0.00 43 1025.0
20260502014644 56 0 0.0 0.0 0.00 0.00 0.00 42 1024.0
20260502013544 55 0 0.0 0.0 0.00 0.00 0.00 42 1024.0
20260502012644 55 0 0.0 0.0 0.00 0.00 0.00 41 1025.0
20260502011544 56 0 0.0 0.0 0.00 0.00 0.00 41 1025.0
20260502010445 56 0 0.0 0.0 0.00 0.00 0.00 41 1025.0
20260502004644 56 0 0.0 0.0 0.00 0.00 0.00 39 1025.0
20260502003544 57 0 0.0 0.0 0.00 0.00 0.00 39 1025.0
20260502003147 57 0 0.0 0.0 0.00 0.00 0.00 39 1024.0
20260502002044 57 0 0.0 0.0 0.00 0.00 0.00 38 1024.0
20260502000446 58 0 0.0 0.0 0.00 0.00 0.00 38 1025.0
20260501235944 58 0 0.0 0.0 0.00 0.00 0.00 37 1025.0
20260501234844 58 0 0.0 0.0 0.00 0.00 0.00 37 1025.0
20260501233747 59 0 0.0 0.0 0.00 0.00 0.00 36 1025.0
20260501232644 59 0 0.0 0.0 0.00 0.00 0.00 35 1025.0
20260501231547 59 0 0.0 0.0 0.00 0.00 0.00 35 1025.0
20260501230444 59 0 0.0 0.0 0.00 0.00 0.00 35 1025.0
20260501224944 60 0 0.0 0.0 0.00 0.00 0.00 34 1025.0
20260501223845 60 0 0.0 0.0 0.00 0.00 0.00 34 1025.0
20260501222744 60 0 0.0 0.0 0.00 0.00 0.00 34 1025.0
20260501221644 60 0 0.0 0.0 0.00 0.00 0.00 34 1025.0
20260501220445 60 0 0.0 0.0 0.00 0.00 0.00 34 1024.0
20260501215948 60 0 0.0 0.0 0.00 0.00 0.00 34 1024.0
20260501214844 60 0 0.0 0.0 0.00 0.00 0.00 34 1024.0